Location: Civís
(42.4648°N, 1.4232°E)
Time: 15:30:10
(UTC+00:00)

Meteor 2-20 - Visible Passes

Search period start: 17 November 2025 00:00
Search period end: 27 November 2025 00:00
Orbit: 939 x 957 km, 82.5° (Epoch: 16 November)

Date Brightness Start Highest point End Pass type
(mag) Time Alt. Az. Time Alt. Az. Time Alt. Az.
20 Nov 7.1 05:49:07 10° NE 05:51:30 12° ENE 05:53:51 10° E visible
21 Nov 6.9 06:04:50 10° NNE 06:09:07 19° ENE 06:13:22 10° ESE visible
22 Nov 6.4 06:21:19 10° NNE 06:26:37 29° ENE 06:31:51 10° SE visible
24 Nov 7.3 05:14:17 10° NE 05:15:13 10° ENE 05:16:07 10° ENE visible
25 Nov 7.0 05:29:04 10° NNE 05:32:52 17° ENE 05:36:39 10° ESE visible
26 Nov 6.6 05:45:24 10° NNE 05:50:25 26° ENE 05:55:22 10° SE visible
